CDT,Max TemperatureF,Mean TemperatureF,Min TemperatureF,Max Dew PointF,MeanDew PointF,Min DewpointF,Max Humidity, Mean Humidity, Min Humidity, Max Sea Level PressureIn, Mean Sea Level PressureIn, Min Sea Level PressureIn, Max VisibilityMiles, Mean VisibilityMiles, Min VisibilityMiles, Max Wind SpeedMPH, Mean Wind SpeedMPH, Max Gust SpeedMPH,PrecipitationIn, CloudCover, Events, WindDirDegrees
2012-9-1,81,62,43,54,47,42,93,62,30,30.24,30.19,30.12,10,8,1,17,3,23,0.00,0,,80
2012-9-2,83,66,48,58,53,48,96,65,34,30.13,30.05,29.97,10,10,10,15,5,22,0.00,0,,115
2012-9-3,85,72,59,71,63,53,100,76,51,29.97,29.93,29.87,10,8,0,14,5,18,0.08,2,Fog,227
2012-9-4,84,70,56,67,63,55,100,76,51,29.94,29.89,29.79,10,4,0,12,5,17,0.00,3,Fog,147
2012-9-5,72,63,53,58,54,51,93,71,49,29.88,29.83,29.80,10,10,10,17,4,25,0.06,2,,257
2012-9-6,77,60,43,54,47,42,100,65,29,29.97,29.93,29.89,10,8,0,18,6,24,0.03,1,Fog-Rain,265
2012-9-7,66,58,49,55,52,44,100,76,52,29.96,29.93,29.90,10,9,5,8,4,14,0.21,6,Rain,290
2012-9-8,64,56,47,54,50,43,96,76,56,29.96,29.87,29.79,10,10,2,18,7,24,0.17,7,Rain,286
2012-9-9,67,54,41,52,46,42,100,71,42,30.17,30.11,29.97,10,8,0,13,3,22,0.01,3,Fog-Rain,317
2012-9-10,75,58,40,50,43,38,100,69,38,30.18,30.11,29.98,10,6,0,20,7,28,0.00,0,Fog,202
2012-9-11,85,72,59,55,51,48,67,50,32,29.98,29.91,29.85,10,10,10,20,12,29,0.00,0,,204
2012-9-12,70,60,50,56,49,39,78,61,43,30.15,30.00,29.90,10,10,10,6,5,8,0.05,2,,248
2012-9-13,67,52,37,48,40,29,93,60,27,30.34,30.29,30.25,10,10,10,16,5,24,T,2,Rain,269
2012-9-14,67,53,39,41,38,34,89,62,34,30.36,30.33,30.31,10,10,10,13,4,21,T,1,,301
2012-9-15,76,55,33,48,39,32,100,66,31,30.36,30.27,30.03,10,6,0,15,5,20,0.00,0,Fog,196
2012-9-16,78,67,55,55,48,43,78,54,30,30.02,29.94,29.88,10,10,10,22,10,32,0.00,2,,225
2012-9-17,62,51,39,52,48,39,100,82,64,29.96,29.89,29.85,10,8,3,12,5,18,0.43,7,Rain,325
2012-9-18,48,39,30,39,34,26,100,71,42,29.98,29.94,29.91,10,6,0,13,6,21,0.01,4,Fog-Rain,289
2012-9-19,56,43,29,50,40,30,92,73,53,29.99,29.79,29.66,10,9,4,30,7,45,0.33,6,Rain,213
2012-9-20,55,47,38,46,43,38,93,82,71,29.89,29.80,29.73,10,9,2,21,8,29,0.15,7,Rain,267
2012-9-21,56,44,31,43,38,30,96,70,43,29.86,29.81,29.77,10,9,2,20,6,25,0.10,5,Rain,266
2012-9-22,51,43,34,39,35,27,93,68,42,30.17,30.00,29.76,10,10,10,20,7,33,0.02,7,Rain,318
2012-9-23,53,42,31,35,32,29,92,67,42,30.23,30.20,30.15,10,10,10,16,6,21,T,5,,286
2012-9-24,70,52,33,39,33,29,82,55,27,30.14,29.89,29.68,10,10,10,26,10,35,0.00,1,,239
2012-9-25,61,47,32,40,37,34,100,70,39,30.00,29.90,29.83,10,10,10,12,4,16,0.00,2,,24
2012-9-26,55,41,26,39,31,25,100,71,41,30.28,30.13,29.99,10,6,0,10,2,15,0.00,2,Fog,321
2012-9-27,62,44,26,40,29,26,100,68,35,30.36,30.29,30.24,10,5,0,3,1,3,0.00,3,Fog,-1
2012-9-28,70,49,28,42,32,27,100,63,26,30.27,30.20,30.13,10,6,0,14,3,20,0.00,0,Fog,263
2012-9-29,71,53,35,42,36,31,92,58,23,30.15,30.11,30.07,10,8,1,12,3,16,0.00,0,,8
2012-9-30,66,48,30,45,36,30,100,66,31,30.10,30.06,29.97,10,4,0,10,1,13,0.00,1,Fog,92